Year,Month,Day,Hour,Minute,Value (Times are PST for temperature in C)
2008,09,03,00,00,10.40
2008,09,03,00,01,10.40
2008,09,03,00,02,10.50
2008,09,03,00,03,10.50
2008,09,03,00,04,10.50
2008,09,03,00,05,10.50
2008,09,03,00,06,10.50
2008,09,03,00,07,10.50
2008,09,03,00,08,10.50
2008,09,03,00,09,10.50
2008,09,03,00,10,10.50
2008,09,03,00,11,10.60
2008,09,03,00,12,10.60
2008,09,03,00,13,10.60
2008,09,03,00,14,10.60
2008,09,03,00,15,10.60
2008,09,03,00,16,10.60
2008,09,03,00,17,10.60
2008,09,03,00,18,10.60
2008,09,03,00,19,10.60
2008,09,03,00,20,10.60
2008,09,03,00,21,10.60
2008,09,03,00,22,10.60
2008,09,03,00,23,10.60
2008,09,03,00,24,10.60
2008,09,03,00,25,10.60
2008,09,03,00,26,10.70
2008,09,03,00,27,10.70
2008,09,03,00,28,10.70
2008,09,03,00,29,10.70
2008,09,03,00,30,10.70
2008,09,03,00,31,10.70
2008,09,03,00,32,10.70
2008,09,03,00,33,10.70
2008,09,03,00,34,10.70
2008,09,03,00,35,10.70
2008,09,03,00,36,10.80
2008,09,03,00,37,10.80
2008,09,03,00,38,10.80
2008,09,03,00,39,10.80
2008,09,03,00,40,10.80
2008,09,03,00,41,10.80
2008,09,03,00,42,10.80
2008,09,03,09,02,13.50
2008,09,03,09,03,13.50
2008,09,03,09,04,13.60
2008,09,03,09,05,13.60
2008,09,03,09,06,13.60
2008,09,03,09,07,13.70
2008,09,03,09,08,13.70
2008,09,03,09,09,13.70
2008,09,03,09,10,13.80
2008,09,03,09,11,13.80
2008,09,03,09,12,13.80
2008,09,03,09,13,13.90
2008,09,03,09,14,14.00
2008,09,03,09,15,14.10
2008,09,03,09,16,14.20
2008,09,03,09,17,14.30
2008,09,03,09,18,14.30
2008,09,03,09,19,14.40
2008,09,03,09,20,14.40
2008,09,03,09,21,14.50
2008,09,03,09,22,14.60
2008,09,03,09,23,14.70
2008,09,03,09,24,14.70
2008,09,03,09,25,14.80
2008,09,03,09,26,14.80
2008,09,03,09,27,14.90
2008,09,03,09,28,15.00
2008,09,03,09,29,15.00
2008,09,03,09,30,15.00
2008,09,03,09,31,15.00
2008,09,03,09,32,15.10
2008,09,03,09,33,15.20
2008,09,03,09,34,15.20
2008,09,03,09,35,15.30
2008,09,03,09,36,15.30
2008,09,03,09,37,15.30
2008,09,03,09,38,15.30
2008,09,03,09,39,15.20
2008,09,03,09,40,15.20
2008,09,03,09,41,15.20
2008,09,03,09,42,15.20
2008,09,03,09,43,15.20
2008,09,03,09,44,15.20
2008,09,03,09,45,15.10
2008,09,03,09,46,15.00
2008,09,03,09,47,15.00
2008,09,03,09,48,15.10
2008,09,03,09,49,15.10
2008,09,03,09,50,15.10
2008,09,03,09,51,15.10
2008,09,03,09,52,15.00
2008,09,03,09,53,15.00
2008,09,03,09,54,15.00
2008,09,03,09,55,15.00
2008,09,03,09,56,15.00
2008,09,03,09,57,15.00
2008,09,03,09,58,15.00
2008,09,03,09,59,15.00
2008,09,03,10,00,15.00
2008,09,03,10,01,15.00
2008,09,03,10,02,15.00
2008,09,03,10,03,15.00
2008,09,03,10,04,15.00
2008,09,03,10,05,15.00
2008,09,03,10,06,15.00
2008,09,03,10,07,15.00
2008,09,03,10,08,15.00
2008,09,03,10,09,15.10
2008,09,03,10,10,15.20
2008,09,03,10,11,15.20
2008,09,03,10,12,15.20
2008,09,03,10,13,15.20
2008,09,03,10,14,15.20
2008,09,03,10,15,15.10
2008,09,03,10,16,15.00
2008,09,03,10,17,15.00
2008,09,03,10,18,15.00
2008,09,03,10,19,15.00
2008,09,03,10,20,15.00
2008,09,03,10,21,15.00
2008,09,03,10,22,15.00
2008,09,03,10,23,15.00
2008,09,03,10,24,15.00
2008,09,03,10,25,15.00
2008,09,03,10,26,15.10
2008,09,03,10,27,15.20
2008,09,03,10,28,15.20
2008,09,03,10,29,15.20
2008,09,03,10,30,15.20
2008,09,03,10,31,15.30
2008,09,03,10,32,15.30
2008,09,03,10,33,15.30
2008,09,03,10,34,15.30
2008,09,03,10,35,15.40
2008,09,03,10,36,15.40
2008,09,03,10,37,15.50
2008,09,03,10,38,15.60
2008,09,03,10,39,15.70
2008,09,03,10,40,15.90
2008,09,03,10,41,16.00
2008,09,03,10,42,16.10
2008,09,03,10,43,16.10
2008,09,03,10,44,16.00
2008,09,03,10,45,15.90
2008,09,03,10,46,16.00
2008,09,03,10,47,16.00
2008,09,03,10,48,16.00
2008,09,03,10,49,16.00
2008,09,03,10,50,16.00
2008,09,03,10,51,16.10
2008,09,03,10,52,16.00
2008,09,03,10,53,16.00
2008,09,03,10,54,16.00
2008,09,03,10,55,15.90
2008,09,03,10,56,16.00
2008,09,03,10,57,16.10
2008,09,03,10,58,16.10
2008,09,03,10,59,16.10
2008,09,03,11,00,16.20
2008,09,03,11,01,16.20
2008,09,03,11,02,16.30
2008,09,03,11,03,16.30
2008,09,03,11,04,16.30
2008,09,03,11,05,16.30
2008,09,03,11,06,16.30
2008,09,03,11,07,16.20
2008,09,03,11,08,16.20
2008,09,03,11,09,16.20
2008,09,03,11,10,16.20
2008,09,03,11,11,16.10
2008,09,03,11,12,16.10
2008,09,03,11,13,16.10
2008,09,03,11,14,16.10
2008,09,03,11,15,16.10
2008,09,03,11,16,16.00
2008,09,03,11,17,16.00
2008,09,03,11,18,16.00
2008,09,03,11,19,16.00
2008,09,03,11,20,16.00
2008,09,03,11,21,16.00
2008,09,03,11,22,16.00
2008,09,03,11,23,16.10
2008,09,03,11,24,16.00
2008,09,03,11,25,15.90
2008,09,03,11,26,15.90
2008,09,03,11,27,15.90
2008,09,03,11,28,15.90
2008,09,03,11,29,15.90
2008,09,03,11,30,15.90
2008,09,03,11,31,16.00
2008,09,03,11,32,16.00
2008,09,03,11,33,16.00
2008,09,03,11,34,16.10
2008,09,03,11,35,16.10
2008,09,03,11,36,16.20
2008,09,03,11,37,16.20
2008,09,03,11,38,16.30
2008,09,03,11,39,16.40
2008,09,03,11,40,16.50
2008,09,03,11,41,16.60
2008,09,03,11,42,16.70
2008,09,03,11,43,16.70
2008,09,03,11,44,16.80
2008,09,03,11,45,16.80
2008,09,03,11,46,16.90
2008,09,03,11,47,17.00
2008,09,03,11,48,17.10
2008,09,03,11,49,17.20
2008,09,03,11,50,17.20
2008,09,03,11,51,17.30
2008,09,03,11,52,17.30
2008,09,03,11,53,17.40
2008,09,03,11,54,17.30
2008,09,03,11,55,17.30
2008,09,03,11,56,17.30
2008,09,03,11,57,17.30
2008,09,03,11,58,17.30
2008,09,03,11,59,17.30
2008,09,03,12,00,17.30
2008,09,03,12,01,17.40
2008,09,03,12,02,17.40
2008,09,03,12,03,17.30
2008,09,03,12,04,17.40
2008,09,03,12,05,17.40
2008,09,03,12,06,17.40
2008,09,03,12,07,17.40
2008,09,03,12,08,17.50
2008,09,03,12,09,17.60
2008,09,03,12,10,17.60
2008,09,03,12,11,17.60
2008,09,03,12,12,17.60
2008,09,03,12,13,17.70
2008,09,03,12,14,17.60
2008,09,03,12,15,17.60
2008,09,03,12,16,17.60
2008,09,03,12,17,17.70
2008,09,03,12,18,17.90
2008,09,03,12,19,18.00
2008,09,03,12,20,18.10
2008,09,03,12,21,18.00
2008,09,03,12,22,17.90
2008,09,03,12,23,17.80
2008,09,03,12,24,17.80
2008,09,03,12,25,17.90
2008,09,03,12,26,17.90
2008,09,03,12,27,17.90
2008,09,03,12,28,17.90
2008,09,03,12,29,17.80
2008,09,03,12,30,17.60
2008,09,03,12,31,17.50
2008,09,03,12,32,17.40
2008,09,03,12,33,17.40
2008,09,03,12,34,17.40
2008,09,03,12,35,17.40
2008,09,03,12,36,17.40
2008,09,03,12,37,17.40
2008,09,03,12,38,17.30
2008,09,03,12,39,17.30
2008,09,03,12,40,17.30
2008,09,03,12,41,17.30
2008,09,03,12,42,17.40
2008,09,03,12,43,17.30
2008,09,03,12,44,17.30
2008,09,03,12,45,17.30
2008,09,03,12,46,17.30
2008,09,03,12,47,17.30
2008,09,03,12,48,17.20
2008,09,03,12,49,17.20
2008,09,03,12,50,17.10
2008,09,03,12,51,17.20
2008,09,03,12,52,17.30
2008,09,03,12,53,17.40
2008,09,03,12,54,17.50
2008,09,03,12,55,17.60
2008,09,03,12,56,17.50
2008,09,03,12,57,17.40
2008,09,03,12,58,17.40
2008,09,03,12,59,17.40
2008,09,03,13,00,17.30
2008,09,03,13,01,17.30
2008,09,03,13,02,17.30
2008,09,03,13,03,17.20
2008,09,03,13,04,17.30
2008,09,03,13,05,17.30
2008,09,03,13,06,17.30
2008,09,03,13,07,17.30
2008,09,03,13,08,17.30
2008,09,03,13,09,17.40
2008,09,03,13,10,17.50
2008,09,03,13,11,17.60
2008,09,03,13,12,17.50
2008,09,03,13,13,17.40
2008,09,03,13,14,17.30
2008,09,03,13,15,17.30
2008,09,03,13,16,17.30
2008,09,03,13,17,17.30
2008,09,03,13,18,17.30
2008,09,03,13,19,17.30
2008,09,03,13,20,17.30
2008,09,03,13,21,17.40
2008,09,03,13,22,17.50
2008,09,03,13,23,17.50
2008,09,03,13,24,17.60
2008,09,03,13,25,17.60
2008,09,03,13,26,17.50
2008,09,03,13,27,17.50
2008,09,03,13,28,17.70
2008,09,03,13,29,17.70
2008,09,03,13,30,17.70
2008,09,03,13,31,17.70
2008,09,03,13,32,17.70
2008,09,03,13,33,17.70
2008,09,03,13,34,17.70
2008,09,03,13,35,17.70
2008,09,03,13,36,17.70
2008,09,03,13,37,17.70
2008,09,03,13,38,17.80
2008,09,03,13,39,17.90
2008,09,03,13,40,18.00
2008,09,03,13,41,18.10
2008,09,03,13,42,18.20
2008,09,03,13,43,18.20
2008,09,03,13,44,18.30
2008,09,03,13,45,18.30
2008,09,03,13,46,18.40
2008,09,03,13,47,18.40
2008,09,03,13,48,18.40
2008,09,03,13,49,18.40
2008,09,03,13,50,18.40
2008,09,03,13,51,18.40
2008,09,03,13,52,18.40
2008,09,03,13,53,18.50
2008,09,03,13,54,18.40
2008,09,03,13,55,18.40
2008,09,03,13,56,18.40
2008,09,03,13,57,18.50
2008,09,03,13,58,18.60
2008,09,03,13,59,18.70
2008,09,03,14,00,18.70
2008,09,03,14,01,18.80
2008,09,03,14,02,18.80
2008,09,03,14,03,18.80
2008,09,03,14,04,18.80
2008,09,03,14,05,18.90
2008,09,03,14,06,18.90
2008,09,03,14,07,18.90
2008,09,03,14,08,18.90
2008,09,03,14,09,18.90
2008,09,03,14,10,18.80
2008,09,03,14,11,18.70
2008,09,03,14,12,18.70
2008,09,03,14,13,18.70
2008,09,03,14,14,18.80
2008,09,03,14,15,19.00
2008,09,03,14,16,19.10
2008,09,03,14,17,19.20
2008,09,03,14,18,19.30
2008,09,03,14,19,19.30
2008,09,03,14,20,19.30
2008,09,03,14,21,19.20
2008,09,03,14,22,19.00
2008,09,03,14,23,18.90
2008,09,03,14,24,18.70
2008,09,03,14,25,18.60
2008,09,03,14,26,18.50
2008,09,03,14,27,18.40
2008,09,03,14,28,18.40
2008,09,03,14,29,18.50
2008,09,03,14,30,18.60
2008,09,03,14,31,18.70
2008,09,03,14,32,18.70
2008,09,03,14,33,18.80
2008,09,03,14,34,18.90
2008,09,03,14,35,18.90
2008,09,03,14,36,19.00
2008,09,03,14,37,19.00
2008,09,03,14,38,19.00
2008,09,03,14,39,19.00
2008,09,03,14,40,18.90
2008,09,03,14,41,18.90
2008,09,03,14,42,18.90
2008,09,03,14,43,19.00
2008,09,03,14,44,19.00
2008,09,03,14,45,18.90
2008,09,03,14,46,18.90
2008,09,03,14,47,19.00
2008,09,03,14,48,19.10
2008,09,03,14,49,19.10
2008,09,03,14,50,19.20
2008,09,03,14,51,19.30
2008,09,03,14,52,19.40
2008,09,03,14,53,19.30
2008,09,03,14,54,19.20
2008,09,03,14,55,19.10
2008,09,03,14,56,19.10
2008,09,03,14,57,19.10
2008,09,03,14,58,19.10
2008,09,03,14,59,19.10
2008,09,03,15,00,19.20
2008,09,03,15,01,19.30
2008,09,03,15,02,19.40
2008,09,03,15,03,19.40
2008,09,03,15,04,19.40
2008,09,03,15,05,19.30
2008,09,03,15,06,19.30
2008,09,03,15,07,19.30
2008,09,03,15,08,19.20
2008,09,03,15,09,19.20
2008,09,03,15,10,19.20
2008,09,03,15,11,19.20
2008,09,03,15,12,19.20
2008,09,03,15,13,19.30
2008,09,03,15,14,19.40
2008,09,03,15,15,19.40
2008,09,03,15,16,19.50
2008,09,03,15,17,19.60
2008,09,03,15,18,19.60
2008,09,03,15,19,19.60
2008,09,03,15,20,19.70
2008,09,03,15,21,19.70
2008,09,03,15,22,19.70
2008,09,03,15,23,19.60
2008,09,03,15,24,19.70
2008,09,03,15,25,19.70
2008,09,03,15,26,19.70
2008,09,03,15,27,19.70
2008,09,03,15,28,19.70
2008,09,03,15,29,19.70
2008,09,03,15,30,19.60
2008,09,03,15,31,19.60
2008,09,03,15,32,19.60
2008,09,03,15,33,19.60
2008,09,03,15,34,19.60
2008,09,03,15,35,19.50
2008,09,03,15,36,19.50
2008,09,03,15,37,19.40
2008,09,03,15,38,19.40
2008,09,03,15,39,19.40
2008,09,03,15,40,19.40
2008,09,03,15,41,19.50
2008,09,03,15,42,19.60
2008,09,03,15,43,19.60
2008,09,03,15,44,19.70
2008,09,03,15,45,19.70
2008,09,03,15,46,19.70
2008,09,03,15,47,19.70
2008,09,03,15,48,19.80
2008,09,03,15,49,19.90
2008,09,03,15,50,19.80
2008,09,03,15,51,19.80
2008,09,03,15,52,19.70
2008,09,03,15,53,19.60
2008,09,03,15,54,19.70
2008,09,03,15,55,19.70
2008,09,03,15,56,19.70
2008,09,03,15,57,19.80
2008,09,03,15,58,19.90
2008,09,03,15,59,20.00
2008,09,03,16,00,20.10
2008,09,03,16,01,20.10
2008,09,03,16,02,20.00
2008,09,03,16,03,19.90
2008,09,03,16,04,19.90
2008,09,03,16,05,19.90
2008,09,03,16,06,19.90
2008,09,03,16,07,19.90
2008,09,03,16,08,19.80
2008,09,03,16,09,19.70
2008,09,03,16,10,19.70
2008,09,03,16,11,19.70
2008,09,03,16,12,19.60
2008,09,03,16,13,19.60
2008,09,03,16,14,19.50
2008,09,03,16,15,19.50
2008,09,03,16,16,19.40
2008,09,03,16,17,19.30
2008,09,03,16,18,19.30
2008,09,03,16,19,19.20
2008,09,03,16,20,19.20
2008,09,03,16,21,19.20
2008,09,03,16,22,19.20
2008,09,03,16,23,19.20
2008,09,03,16,24,19.10
2008,09,03,16,25,19.20
2008,09,03,16,26,19.10
2008,09,03,16,27,19.10
2008,09,03,16,28,19.10
2008,09,03,16,29,19.00
2008,09,03,16,30,19.00
2008,09,03,16,31,18.90
2008,09,03,16,32,18.90
2008,09,03,16,33,18.90
2008,09,03,16,34,18.90
2008,09,03,16,35,18.90
2008,09,03,16,36,19.00
2008,09,03,16,37,19.00
2008,09,03,16,38,19.20
2008,09,03,16,39,19.30
2008,09,03,16,40,19.30
2008,09,03,16,41,19.40
2008,09,03,16,42,19.40
2008,09,03,16,43,19.40
2008,09,03,16,44,19.40
2008,09,03,16,45,19.30
2008,09,03,16,46,19.30
2008,09,03,16,47,19.30
2008,09,03,16,48,19.40
2008,09,03,16,49,19.40
2008,09,03,16,50,19.50
2008,09,03,16,51,19.40
2008,09,03,16,52,19.40
2008,09,03,16,53,19.40
2008,09,03,16,54,19.40
2008,09,03,16,55,19.40
2008,09,03,16,56,19.50
2008,09,03,16,57,19.50
2008,09,03,16,58,19.40
2008,09,03,16,59,19.50
2008,09,03,17,00,19.50
2008,09,03,17,01,19.60
2008,09,03,17,02,19.60
2008,09,03,17,03,19.60
2008,09,03,17,04,19.60
2008,09,03,17,05,19.60
2008,09,03,17,06,19.60
2008,09,03,17,07,19.70
2008,09,03,17,08,19.70
2008,09,03,17,09,19.70
2008,09,03,17,10,19.70
2008,09,03,17,11,19.70
2008,09,03,17,12,19.70
2008,09,03,17,13,19.70
2008,09,03,17,14,19.70
2008,09,03,17,15,19.80
2008,09,03,17,16,19.70
2008,09,03,17,17,19.70
2008,09,03,17,18,19.60
2008,09,03,17,19,19.60
2008,09,03,17,20,19.60
2008,09,03,17,21,19.60
2008,09,03,17,22,19.60
2008,09,03,17,23,19.50
2008,09,03,17,24,19.40
2008,09,03,17,25,19.40
2008,09,03,17,26,19.40
2008,09,03,17,27,19.40
2008,09,03,17,28,19.50
2008,09,03,17,29,19.50
2008,09,03,17,30,19.50
2008,09,03,17,31,19.40
2008,09,03,17,32,19.40
2008,09,03,17,33,19.30
2008,09,03,17,34,19.30
2008,09,03,17,35,19.30
2008,09,03,17,36,19.30
2008,09,03,17,37,19.30
2008,09,03,17,38,19.30
2008,09,03,17,39,19.30
2008,09,03,17,40,19.30
2008,09,03,17,41,19.40
2008,09,03,17,42,19.40
2008,09,03,17,43,19.40
2008,09,03,17,44,19.40
2008,09,03,17,45,19.40
2008,09,03,17,46,19.30
2008,09,03,17,47,19.20
2008,09,03,17,48,19.10
2008,09,03,17,49,19.10
2008,09,03,17,50,19.10
2008,09,03,17,51,19.10
2008,09,03,17,52,19.10
2008,09,03,17,53,19.20
2008,09,03,17,54,19.10
2008,09,03,17,55,19.10
2008,09,03,17,56,19.10
2008,09,03,17,57,19.00
2008,09,03,17,58,19.00
2008,09,03,17,59,19.00
2008,09,03,18,00,19.00
2008,09,03,18,01,18.90
2008,09,03,18,02,19.00
2008,09,03,18,03,19.00
2008,09,03,18,04,19.00
2008,09,03,18,05,18.90
2008,09,03,18,06,18.90
2008,09,03,18,07,18.80
2008,09,03,18,08,18.90
2008,09,03,18,09,18.90
2008,09,03,18,10,18.90
2008,09,03,18,11,18.80
2008,09,03,18,12,18.70
2008,09,03,18,13,18.60
2008,09,03,18,14,18.60
2008,09,03,18,15,18.50
2008,09,03,18,16,18.50
2008,09,03,18,17,18.50
2008,09,03,18,18,18.50
2008,09,03,18,19,18.50
2008,09,03,18,20,18.50
2008,09,03,18,21,18.50
2008,09,03,18,22,18.50
2008,09,03,18,23,18.50
2008,09,03,18,24,18.50
2008,09,03,18,25,18.50
2008,09,03,18,26,18.50
2008,09,03,18,27,18.50
2008,09,03,18,28,18.60
2008,09,03,18,29,18.60
2008,09,03,18,30,18.60
2008,09,03,18,31,18.60
2008,09,03,18,32,18.60
2008,09,03,18,33,18.60
2008,09,03,18,34,18.60
2008,09,03,18,35,18.60
2008,09,03,18,36,18.50
2008,09,03,18,37,18.50
2008,09,03,18,38,18.40
2008,09,03,18,39,18.40
2008,09,03,18,40,18.40
2008,09,03,18,41,18.40
2008,09,03,18,42,18.30
2008,09,03,18,43,18.30
2008,09,03,18,44,18.30
2008,09,03,18,45,18.30
2008,09,03,18,46,18.30
2008,09,03,18,47,18.30
2008,09,03,18,48,18.30
2008,09,03,18,49,18.30
2008,09,03,18,50,18.40
2008,09,03,18,51,18.30
2008,09,03,18,52,18.40
2008,09,03,18,53,18.30
2008,09,03,18,54,18.30
2008,09,03,18,55,18.20
2008,09,03,18,56,18.20
2008,09,03,18,57,18.10
2008,09,03,18,58,18.10
2008,09,03,18,59,18.00
2008,09,03,19,00,18.00
2008,09,03,19,01,18.00
2008,09,03,19,02,18.00
2008,09,03,19,03,17.90
2008,09,03,19,04,18.00
2008,09,03,19,05,18.00
2008,09,03,19,06,17.90
2008,09,03,19,07,17.90
2008,09,03,19,08,17.90
2008,09,03,19,09,17.90
2008,09,03,19,10,17.90
2008,09,03,19,11,17.80
2008,09,03,19,12,17.70
2008,09,03,19,13,17.70
2008,09,03,19,14,17.70
2008,09,03,19,15,17.60
2008,09,03,19,16,17.60
2008,09,03,19,17,17.50
2008,09,03,19,18,17.40
2008,09,03,19,19,17.40
2008,09,03,19,20,17.30
2008,09,03,19,21,17.30
2008,09,03,19,22,17.30
2008,09,03,19,23,17.20
2008,09,03,19,24,17.20
2008,09,03,19,25,17.20
2008,09,03,19,26,17.20
2008,09,03,19,27,17.20
2008,09,03,19,28,17.10
2008,09,03,19,29,17.10
2008,09,03,19,30,17.10
2008,09,03,19,31,17.10
2008,09,03,19,32,17.10
2008,09,03,19,33,17.10
2008,09,03,19,34,17.10
2008,09,03,19,35,17.10
2008,09,03,19,36,17.00
2008,09,03,19,37,17.00
2008,09,03,19,38,16.90
2008,09,03,19,39,16.90
2008,09,03,19,40,16.90
2008,09,03,19,41,16.80
2008,09,03,19,42,16.80
2008,09,03,19,43,16.80
2008,09,03,19,44,16.70
2008,09,03,19,45,16.70
2008,09,03,19,46,16.70
2008,09,03,19,47,16.60
2008,09,03,19,48,16.60
2008,09,03,19,49,16.60
2008,09,03,19,50,16.50
2008,09,03,19,51,16.50
2008,09,03,19,52,16.40
2008,09,03,19,53,16.40
2008,09,03,19,54,16.30
2008,09,03,19,55,16.30
2008,09,03,19,56,16.30
2008,09,03,19,57,16.20
2008,09,03,19,58,16.20
2008,09,03,19,59,16.20
2008,09,03,20,00,16.20
2008,09,03,20,01,16.20
2008,09,03,20,02,16.10
2008,09,03,20,03,16.10
2008,09,03,20,04,16.10
2008,09,03,20,05,16.10
2008,09,03,20,06,16.00
2008,09,03,20,07,16.00
2008,09,03,20,08,16.00
2008,09,03,20,09,16.00
2008,09,03,20,10,16.00
2008,09,03,20,11,15.90
2008,09,03,20,12,15.90
2008,09,03,20,13,15.90
2008,09,03,20,14,15.90
2008,09,03,20,15,15.90
2008,09,03,20,16,15.80
2008,09,03,20,17,15.80
2008,09,03,20,18,15.80
2008,09,03,20,19,15.80
2008,09,03,20,20,15.70
2008,09,03,20,21,15.70
2008,09,03,20,22,15.70
2008,09,03,20,23,15.70
2008,09,03,20,24,15.70
2008,09,03,20,25,15.70
2008,09,03,20,26,15.60
2008,09,03,20,27,15.60
2008,09,03,20,28,15.60
2008,09,03,20,29,15.60
2008,09,03,20,30,15.60
2008,09,03,20,31,15.60
2008,09,03,20,32,15.50
2008,09,03,20,33,15.50
2008,09,03,20,34,15.50
2008,09,03,20,35,15.40
2008,09,03,20,36,15.40
2008,09,03,20,37,15.40
2008,09,03,20,38,15.30
2008,09,03,20,39,15.30
2008,09,03,20,40,15.30
2008,09,03,20,41,15.20
2008,09,03,20,42,15.20
2008,09,03,20,43,15.10
2008,09,03,20,44,15.10
2008,09,03,20,45,15.00
2008,09,03,20,46,15.00
2008,09,03,20,47,15.00
2008,09,03,20,48,15.00
2008,09,03,20,49,15.00
2008,09,03,20,50,15.00
2008,09,03,20,51,15.00
2008,09,03,20,52,15.00
2008,09,03,20,53,15.00
2008,09,03,20,54,15.00
2008,09,03,20,55,15.00
2008,09,03,20,56,14.90
2008,09,03,20,57,14.90
2008,09,03,20,58,14.80
2008,09,03,20,59,14.80
2008,09,03,21,00,14.80
2008,09,03,21,01,14.80
2008,09,03,21,02,14.80
2008,09,03,21,03,14.80
2008,09,03,21,04,14.80
2008,09,03,21,05,14.70
2008,09,03,21,06,14.70
2008,09,03,21,07,14.70
2008,09,03,21,08,14.70
2008,09,03,21,09,14.70
2008,09,03,21,10,14.70
2008,09,03,21,11,14.70
2008,09,03,21,12,14.70
2008,09,03,21,13,14.60
2008,09,03,21,14,14.60
2008,09,03,21,15,14.60
2008,09,03,21,16,14.60
2008,09,03,21,17,14.60
2008,09,03,21,18,14.60
2008,09,03,21,19,14.60
2008,09,03,21,20,14.60
2008,09,03,21,21,14.60
2008,09,03,21,22,14.60
2008,09,03,21,23,14.60
2008,09,03,21,24,14.60
2008,09,03,21,25,14.60
2008,09,03,21,26,14.60
2008,09,03,21,27,14.60
2008,09,03,21,28,14.60
2008,09,03,21,29,14.60
2008,09,03,21,30,14.60
2008,09,03,21,31,14.60
2008,09,03,21,32,14.60
2008,09,03,21,33,14.70
2008,09,03,21,34,14.70
2008,09,03,21,35,14.70
2008,09,03,21,36,14.70
2008,09,03,21,37,14.70
2008,09,03,21,38,14.60
2008,09,03,21,39,14.70
2008,09,03,21,40,14.70
2008,09,03,21,41,14.70
2008,09,03,21,42,14.70
2008,09,03,21,43,14.60
2008,09,03,21,44,14.60
2008,09,03,21,45,14.60
2008,09,03,21,46,14.60
2008,09,03,21,47,14.60
2008,09,03,21,48,14.60
2008,09,03,21,49,14.60
2008,09,03,21,50,14.60
2008,09,03,21,51,14.60
2008,09,03,21,52,14.60
2008,09,03,21,53,14.60
2008,09,03,21,54,14.60
2008,09,03,21,55,14.60
2008,09,03,21,56,14.60
2008,09,03,21,57,14.60
2008,09,03,21,58,14.60
2008,09,03,21,59,14.60
2008,09,03,22,00,14.60
2008,09,03,22,01,14.60
2008,09,03,22,02,14.60
2008,09,03,22,03,14.60
2008,09,03,22,04,14.60
2008,09,03,22,05,14.60
2008,09,03,22,06,14.60
2008,09,03,22,07,14.60
2008,09,03,22,08,14.60
2008,09,03,22,09,14.60
2008,09,03,22,10,14.60
2008,09,03,22,11,14.60
2008,09,03,22,12,14.60
2008,09,03,22,13,14.60
2008,09,03,22,14,14.60
2008,09,03,22,15,14.60
2008,09,03,22,16,14.60
2008,09,03,22,17,14.60
2008,09,03,22,18,14.60
2008,09,03,22,19,14.60
2008,09,03,22,20,14.60
2008,09,03,22,21,14.60
2008,09,03,22,22,14.60
2008,09,03,22,23,14.60
2008,09,03,22,24,14.60
2008,09,03,22,25,14.60
2008,09,03,22,26,14.60
2008,09,03,22,27,14.60
2008,09,03,22,28,14.50
2008,09,03,22,29,14.50
2008,09,03,22,30,14.50
2008,09,03,22,31,14.50
2008,09,03,22,32,14.50
2008,09,03,22,33,14.50
2008,09,03,22,34,14.50
2008,09,03,22,35,14.50
2008,09,03,22,36,14.50
2008,09,03,22,37,14.50
2008,09,03,22,38,14.50
2008,09,03,22,39,14.50
2008,09,03,22,40,14.50
2008,09,03,22,41,14.50
2008,09,03,22,42,14.50
2008,09,03,22,43,14.50
2008,09,03,22,44,14.50
2008,09,03,22,45,14.40
2008,09,03,22,46,14.40
2008,09,03,22,47,14.40
2008,09,03,22,48,14.40
2008,09,03,22,49,14.40
2008,09,03,22,50,14.40
2008,09,03,22,51,14.40
2008,09,03,22,52,14.40
2008,09,03,22,53,14.40
2008,09,03,22,54,14.40
2008,09,03,22,55,14.40
2008,09,03,22,56,14.40
2008,09,03,22,57,14.40
2008,09,03,22,58,14.40
2008,09,03,22,59,14.40
2008,09,03,23,00,14.40
2008,09,03,23,01,14.40
2008,09,03,23,02,14.40
2008,09,03,23,03,14.40
2008,09,03,23,04,14.40
2008,09,03,23,05,14.40
2008,09,03,23,06,14.40
2008,09,03,23,07,14.40
2008,09,03,23,08,14.40
2008,09,03,23,09,14.30
2008,09,03,23,10,14.30
2008,09,03,23,11,14.30
2008,09,03,23,12,14.30
2008,09,03,23,13,14.30
2008,09,03,23,14,14.30
2008,09,03,23,15,14.30
2008,09,03,23,16,14.30
2008,09,03,23,17,14.30
2008,09,03,23,18,14.30
2008,09,03,23,19,14.30
2008,09,03,23,20,14.20
2008,09,03,23,21,14.20
2008,09,03,23,22,14.20
2008,09,03,23,23,14.20
2008,09,03,23,24,14.20
2008,09,03,23,25,14.20
2008,09,03,23,26,14.20
2008,09,03,23,27,14.20
2008,09,03,23,28,14.30
2008,09,03,23,29,14.30
2008,09,03,23,30,14.30
2008,09,03,23,31,14.30
2008,09,03,23,32,14.30
2008,09,03,23,33,14.30
2008,09,03,23,34,14.30
2008,09,03,23,35,14.20
2008,09,03,23,36,14.20
2008,09,03,23,37,14.20
2008,09,03,23,38,14.20
2008,09,03,23,39,14.20
2008,09,03,23,40,14.20
2008,09,03,23,41,14.20
2008,09,03,23,42,14.20
2008,09,03,23,43,14.20
2008,09,03,23,44,14.20
2008,09,03,23,45,14.20
2008,09,03,23,46,14.20
2008,09,03,23,47,14.20
2008,09,03,23,48,14.20
2008,09,03,23,49,14.20
2008,09,03,23,50,14.20
2008,09,03,23,51,14.20
2008,09,03,23,52,14.20
2008,09,03,23,53,14.20
2008,09,03,23,54,14.20
2008,09,03,23,55,14.20
2008,09,03,23,56,14.20
2008,09,03,23,57,14.20
2008,09,03,23,58,14.20
2008,09,03,23,59,14.30
